Content
SEND FEEDBACK

Daily
Averages
Monthly
Summary
United States of America

AGANA, GUAM


Home > North America > United States > Guam
Elevation: 246 feet     Latitude: 13 29N     Longitude: 144 48E

WEATHER
 
SELECT A DAY
Number of Records: 209,230;   Date Range: 1/1/95 - 9/3/14
 
SHARE

PRINT THIS DATA

[ ← Previous Day ]
WEATHER ALMANAC - APRIL 26, 2014
[ Next Day → ]
[ °C ]   °F
Weather ElementAverageHighLow
Temperature82.3 °F89.1 °F (10:54 am)77 °F (4:54 am)
Dewpoint75.6 °F78.8 °F (2:30 pm)73 °F (9:54 am)
Humidity81 %96 % (11:54 pm)59 % (11:54 am)
Barometer29.79 in29.85 in (10:01 pm)29.74 in (2:54 pm)
Wind Speed11.3 mph19.6 mph (12:54 pm)
Wind Gust27.6 mph (2:18 pm)
Weather ElementAverage
Visibility9.4 mi
Wind DirectionENE (80.7 °)

Weather ElementTotal
Precipitation0.14 in
Cooling Degree Days18.1 (Base 65)
Growing Degree Days33.1 (Base 50)
Averaged from 29 records on April 26, 2014
WEATHER CONDITIONS BREAKOUT
WIND DIRECTION BREAKOUT
WEATHER BY HOUR - APRIL 26, 2014
[ °C ]   °F
Local TimeTemperatureDewpointHumidityBarometerVisibilityWind DirectionWind SpeedGust SpeedPrecipitationEventsConditions
1:54 AM80.1 °F73.9 °F81 %29.78 in10.0 miNE (50°)5.8 mphOvercast
2:54 AM80.1 °F73.9 °F81 %29.76 in10.0 miNE (40°)4.6 mphMostly Cloudy
3:54 AM79.0 °F75.0 °F88 %29.77 in10.0 miENE (60°)4.6 mph0.00 inScattered Clouds
4:54 AM77.0 °F75.0 °F94 %29.78 in10.0 miNNE (30°)4.6 mph0.00 inOvercast
5:54 AM77.0 °F75.0 °F94 %29.79 in10.0 miNNW (340°)6.9 mphOvercast
6:54 AM78.1 °F75.0 °F90 %29.80 in10.0 miNE (40°)6.9 mphPartly Cloudy
7:54 AM82.0 °F77.0 °F85 %29.82 in10.0 miENE (60°)13.8 mphScattered Clouds
8:54 AM84.0 °F75.0 °F74 %29.84 in10.0 miNE (50°)16.1 mphScattered Clouds
9:54 AM87.1 °F73.0 °F63 %29.83 in10.0 miENE (70°)12.7 mphPartly Cloudy
10:54 AM89.1 °F73.9 °F61 %29.81 in10.0 miNE (50°)16.1 mph23.0 mphPartly Cloudy
11:54 AM89.1 °F73.0 °F59 %29.79 in10.0 miNE (40°)15.0 mphScattered Clouds
12:54 PM88.0 °F75.0 °F65 %29.78 in10.0 miENE (60°)19.6 mph25.3 mphMostly Cloudy
1:54 PM88.0 °F75.0 °F65 %29.75 in10.0 miENE (70°)12.7 mph0.00 inOvercast
2:18 PM84.2 °F75.2 °F74 %29.78 in3.0 miENE (70°)16.1 mph27.6 mph0.00 inRainRain
2:30 PM84.2 °F78.8 °F84 %29.77 in7.0 miNE (50°)11.5 mph0.04 inRainLight Rain
2:54 PM86.0 °F77.0 °F74 %29.74 in10.0 miEast (80°)15.0 mph0.04 inScattered Clouds
3:54 PM86.0 °F75.9 °F72 %29.75 in10.0 miENE (70°)17.3 mphScattered Clouds
4:16 PM80.6 °F77.0 °F89 %29.77 in9.0 miEast (80°)16.1 mph0.00 inRainLight Rain
4:40 PM82.4 °F77.0 °F84 %29.76 in10.0 miEast (90°)11.5 mph0.00 inMostly Cloudy
4:54 PM82.9 °F77.0 °F82 %29.75 in10.0 miENE (70°)16.1 mph20.7 mph0.00 inMostly Cloudy
5:54 PM82.0 °F75.9 °F82 %29.77 in10.0 miEast (80°)12.7 mphScattered Clouds
6:54 PM80.1 °F75.0 °F85 %29.78 in10.0 miEast (90°)10.4 mphPartly Cloudy
7:54 PM80.1 °F75.9 °F87 %29.80 in10.0 miEast (90°)8.1 mphScattered Clouds
8:54 PM80.1 °F77.0 °F90 %29.81 in10.0 miEast (80°)10.4 mphScattered Clouds
9:54 PM81.0 °F77.0 °F88 %29.83 in10.0 miEast (90°)9.2 mphMostly Cloudy
10:01 PM80.6 °F75.2 °F84 %29.85 in10.0 miEast (100°)8.1 mphScattered Clouds
10:54 PM81.0 °F77.0 °F88 %29.83 in10.0 miEast (90°)8.1 mphMostly Cloudy
11:34 PM78.8 °F75.2 °F89 %29.85 in8.0 miEast (100°)13.8 mph24.2 mph0.00 inRainLight Rain
11:54 PM77.0 °F75.9 °F96 %29.82 in6.0 miSSE (150°)4.6 mph0.06 inRainLight Rain
Hourly data recorded from PGUM, located miles away from Agana, Guam







STORIES FROM OUR PARTNERS